EW0610 Weather Reports


Display with metric or nautical units.
time (UTC)temp
F
wind
direction
speed
MPH
gust
MPH
rain 1hr
in
rain 24hr
in
rain mn
in
humidity
%
barometer
mb
20260507100103 52 7 0.0 0.0 0.00 0.04 0.00 84 1018.6
20260507095556 52 7 0.0 0.0 0.00 0.04 0.00 84 1018.5
20260507095041 52 7 0.0 0.0 0.00 0.04 0.00 84 1018.5
20260507094543 52 7 0.0 0.0 0.00 0.04 0.00 84 1018.3
20260507094049 52 7 0.0 0.0 0.00 0.04 0.00 84 1018.2
20260507093536 52 7 0.0 0.0 0.00 0.04 0.00 84 1018.2
20260507093022 52 7 0.0 0.0 0.00 0.04 0.00 84 1018.0
20260507092556 52 7 0.0 0.0 0.00 0.04 0.00 84 1017.8
20260507092024 52 7 0.0 0.0 0.00 0.04 0.00 83 1017.7
20260507091537 52 7 0.0 0.0 0.00 0.04 0.00 83 1017.7
20260507091026 52 7 0.0 0.0 0.00 0.04 0.00 83 1017.6
20260507090545 52 8 0.0 0.0 0.00 0.04 0.00 83 1017.5
20260507090032 53 8 0.0 0.0 0.00 0.04 0.00 82 1017.6
20260507085537 53 8 0.0 0.0 0.00 0.04 0.00 82 1017.6
20260507085027 53 8 0.0 0.0 0.00 0.04 0.00 82 1017.8
20260507084535 53 8 0.0 0.0 0.00 0.04 0.00 82 1017.9
20260507084023 53 8 0.0 0.0 0.00 0.04 0.00 82 1017.8
20260507083556 53 8 0.0 0.0 0.00 0.04 0.00 82 1017.9
20260507083039 53 8 0.0 0.0 0.00 0.04 0.00 81 1017.8
20260507082523 53 8 0.0 0.0 0.00 0.04 0.00 81 1017.9
20260507082031 53 8 0.0 0.0 0.00 0.04 0.00 81 1017.7
20260507081537 53 8 0.0 0.0 0.00 0.04 0.00 80 1017.9
20260507081023 54 8 0.0 0.0 0.00 0.04 0.00 80 1017.9
20260507080526 54 8 0.0 0.0 0.00 0.04 0.00 80 1017.9
20260507075523 54 7 0.0 0.0 0.00 0.04 0.00 80 1017.7
20260507075100 54 7 0.0 0.0 0.00 0.04 0.00 80 1017.6
20260507074547 54 7 0.0 0.0 0.00 0.04 0.00 80 1017.5
20260507074052 54 7 0.0 0.0 0.00 0.04 0.00 80 1017.4
20260507073544 54 4 0.0 0.0 0.00 0.04 0.00 80 1017.4
20260507073030 54 1 0.0 3.0 0.00 0.04 0.00 79 1017.4
20260507072540 54 1 1.0 3.0 0.00 0.04 0.00 80 1017.4
20260507072042 54 12 0.0 3.0 0.00 0.04 0.00 80 1017.4
20260507071548 54 18 0.0 3.0 0.00 0.04 0.00 79 1017.3
20260507071028 54 20 0.0 3.0 0.00 0.04 0.00 79 1017.2
20260507070538 55 18 0.0 2.0 0.00 0.04 0.00 80 1017.3
20260507070026 55 18 0.0 2.0 0.00 0.04 0.00 79 1017.3
20260507065553 55 21 0.0 5.0 0.00 0.04 0.00 79 1017.3
20260507065101 55 20 1.0 5.0 0.00 0.04 0.00 79 1017.2
20260507064526 55 54 0.0 2.0 0.00 0.04 0.00 79 1017.3
20260507064103 55 54 0.0 4.0 0.00 0.04 0.00 79 1017.2
20260507063526 55 56 0.0 4.0 0.00 0.04 0.00 78 1017.3
20260507063028 55 60 0.0 1.0 0.00 0.04 0.00 78 1017.2
20260507062602 55 61 0.0 0.0 0.00 0.04 0.00 78 1017.3
20260507062044 55 62 0.0 0.0 0.00 0.04 0.00 78 1017.3
20260507061530 55 62 0.0 0.0 0.00 0.04 0.00 78 1017.1
20260507061041 55 62 0.0 0.0 0.00 0.04 0.00 78 1017.0
20260507060527 56 62 0.0 0.0 0.00 0.04 0.00 77 1017.0
20260507060040 56 62 0.0 0.0 0.00 0.04 0.00 77 1017.0
20260507055534 56 62 0.0 0.0 0.00 0.04 0.04 77 1017.0
20260507055022 56 62 0.0 0.0 0.00 0.04 0.04 77 1017.0
20260507054526 56 62 0.0 1.0 0.00 0.04 0.04 77 1017.0
20260507054034 56 62 0.0 1.0 0.00 0.04 0.04 76 1016.9
20260507053520 56 63 0.0 1.0 0.00 0.04 0.04 76 1016.9
20260507053031 56 63 0.0 0.0 0.00 0.04 0.04 76 1017.0
20260507052539 56 64 0.0 0.0 0.00 0.04 0.04 76 1016.8
20260507052028 56 65 0.0 0.0 0.00 0.04 0.04 75 1016.9
20260507051535 57 66 0.0 0.0 0.00 0.04 0.04 75 1016.8
20260507051021 57 66 0.0 4.0 0.00 0.04 0.04 75 1016.8
20260507050525 57 69 0.0 6.0 0.00 0.04 0.04 74 1016.8
20260507050030 57 55 1.0 6.0 0.00 0.04 0.04 74 1016.8
20260507045520 57 60 0.0 5.0 0.00 0.04 0.04 73 1016.9
20260507045032 58 60 1.0 6.0 0.00 0.04 0.04 73 1016.9
20260507044542 58 65 0.0 6.0 0.00 0.04 0.04 73 1016.9
20260507044052 58 58 0.0 5.0 0.00 0.04 0.04 72 1017.0
20260507043602 58 58 0.0 10.0 0.00 0.04 0.04 72 1017.0
20260507043045 58 60 0.0 10.0 0.00 0.04 0.04 71 1016.9
20260507042530 58 71 4.0 12.0 0.00 0.04 0.04 71 1017.1
20260507042035 59 60 3.0 12.0 0.00 0.04 0.04 71 1017.1
20260507041524 59 70 1.0 12.0 0.00 0.04 0.04 70 1017.1
20260507041030 59 57 5.0 13.0 0.00 0.04 0.04 70 1017.1
20260507040537 59 79 7.0 13.0 0.00 0.04 0.04 70 1017.1
20260507040020 59 73 1.0 10.0 0.00 0.04 0.04 70 1017.1
20260507035522 60 42 0.0 15.0 0.00 0.04 0.04 69 1017.2
20260507035034 60 60 6.0 15.0 0.00 0.04 0.04 70 1017.2
20260507034524 60 67 10.0 15.0 0.00 0.04 0.04 70 1017.0
20260507034032 60 81 0.0 10.0 0.00 0.04 0.04 70 1017.1
20260507033524 60 47 0.0 12.0 0.00 0.04 0.04 70 1017.2
20260507033027 60 52 7.0 12.0 0.00 0.04 0.04 69 1017.2
20260507032531 60 61 1.0 11.0 0.00 0.04 0.04 69 1017.1
20260507032103 60 56 5.0 11.0 0.00 0.04 0.04 69 1017.1
20260507031547 60 27 4.0 9.0 0.00 0.04 0.04 69 1017.1
20260507031040 60 45 4.0 9.0 0.00 0.04 0.04 69 1017.1
20260507030527 60 41 3.0 12.0 0.00 0.04 0.04 69 1017.1
20260507030032 60 63 3.0 13.0 0.00 0.04 0.04 68 1017.1
20260507025536 60 9 7.0 14.0 0.00 0.04 0.04 68 1016.9
20260507025020 61 54 2.0 18.0 0.00 0.04 0.04 68 1016.8
20260507024531 61 37 6.0 11.0 0.00 0.04 0.04 68 1016.7
20260507024036 61 32 7.0 11.0 0.00 0.04 0.04 69 1016.6
20260507023523 61 27 2.0 14.0 0.00 0.04 0.04 69 1016.4
20260507023028 61 14 6.0 14.0 0.00 0.04 0.04 69 1016.4
20260507022532 62 21 6.0 12.0 0.00 0.04 0.04 70 1016.3
20260507022038 62 61 3.0 12.0 0.00 0.04 0.04 70 1016.1
20260507021526 62 24 3.0 12.0 0.00 0.04 0.04 70 1016.0
20260507021024 62 3 0.0 5.0 0.00 0.04 0.04 71 1016.0
20260507020537 62 54 0.0 6.0 0.00 0.04 0.04 71 1015.9
20260507020041 62 58 1.0 12.0 0.00 0.04 0.04 70 1015.8
20260507015526 62 60 0.0 12.0 0.00 0.04 0.04 70 1015.6
20260507015034 62 54 3.0 12.0 0.00 0.04 0.04 70 1015.6
20260507014541 62 54 3.0 9.0 0.00 0.04 0.04 69 1015.5
20260507014024 62 60 0.0 11.0 0.00 0.04 0.04 69 1015.3
20260507013524 62 64 5.0 11.0 0.00 0.04 0.04 69 1015.2
20260507013030 62 42 0.0 13.0 0.00 0.04 0.04 69 1015.1
20260507012539 62 70 2.0 13.0 0.00 0.04 0.04 69 1015.0
20260507012023 62 63 7.0 13.0 0.00 0.04 0.04 69 1014.7
20260507011529 63 61 7.0 13.0 0.00 0.04 0.04 69 1014.6
20260507011037 63 60 6.0 11.0 0.00 0.04 0.04 69 1014.5
20260507010524 63 35 0.0 10.0 0.00 0.04 0.04 69 1014.6
20260507010028 63 38 0.0 9.0 0.00 0.04 0.04 69 1014.5
20260507005532 63 53 0.0 10.0 0.00 0.04 0.04 69 1014.5
20260507005036 63 41 3.0 12.0 0.00 0.04 0.04 69 1014.5
20260507004543 63 38 4.0 12.0 0.00 0.04 0.04 69 1014.3
20260507004035 63 45 5.0 12.0 0.00 0.04 0.04 69 1014.3
20260507003537 63 68 0.0 15.0 0.00 0.04 0.04 68 1014.3
20260507003024 63 45 5.0 15.0 0.00 0.04 0.04 68 1014.2
20260507002553 64 67 0.0 12.0 0.00 0.04 0.04 67 1014.3
20260507002042 64 41 2.0 12.0 0.00 0.04 0.04 67 1014.2
20260507001528 64 72 6.0 12.0 0.00 0.04 0.04 66 1014.2
20260507001034 64 35 3.0 12.0 0.00 0.04 0.04 67 1014.0
20260507000525 65 69 7.0 14.0 0.00 0.04 0.04 67 1013.9
20260507000101 65 52 5.0 14.0 0.00 0.04 0.04 66 1013.9
20260506235540 65 85 7.0 13.0 0.00 0.04 0.04 66 1013.8
20260506235055 65 60 8.0 13.0 0.00 0.04 0.04 65 1013.7
20260506234538 65 31 6.0 13.0 0.00 0.04 0.04 65 1013.7
20260506234024 66 54 4.0 13.0 0.00 0.04 0.04 65 1013.7
20260506233558 66 54 4.0 14.0 0.00 0.04 0.04 64 1013.6
20260506233027 66 56 11.0 14.0 0.00 0.04 0.04 64 1013.4
20260506232535 66 42 5.0 11.0 0.00 0.04 0.04 64 1013.4
20260506232023 67 52 3.0 12.0 0.00 0.04 0.04 63 1013.4
20260506231530 67 55 5.0 12.0 0.00 0.04 0.04 63 1013.3
20260506231041 67 58 4.0 12.0 0.00 0.04 0.04 63 1013.3
20260506230528 67 58 7.0 12.0 0.00 0.04 0.04 62 1013.2
20260506225543 68 44 6.0 13.0 0.00 0.04 0.04 60 1013.4
20260506225046 68 65 0.0 14.0 0.00 0.04 0.04 61 1013.3
20260506224526 68 61 9.0 14.0 0.00 0.04 0.04 60 1013.2
20260506224031 68 60 2.0 13.0 0.00 0.04 0.04 60 1013.0
20260506223542 68 39 9.0 13.0 0.00 0.04 0.04 61 1013.0
20260506223027 68 65 3.0 9.0 0.00 0.04 0.04 62 1013.1
20260506222532 68 20 4.0 10.0 0.00 0.04 0.04 62 1013.0
20260506222057 68 72 5.0 15.0 0.00 0.04 0.04 61 1012.9
20260506221525 68 16 2.0 15.0 0.00 0.04 0.04 61 1012.9
20260506221043 68 65 5.0 15.0 0.00 0.04 0.04 62 1012.8
20260506220545 68 343 1.0 10.0 0.00 0.04 0.04 62 1013.0
20260506220037 67 49 2.0 10.0 0.00 0.04 0.04 61 1013.2
20260506215528 67 80 2.0 10.0 0.00 0.04 0.04 62 1013.3
20260506215054 67 14 1.0 12.0 0.00 0.04 0.04 61 1013.2
20260506214535 67 70 0.0 10.0 0.00 0.04 0.04 63 1013.2
20260506214044 67 66 1.0 12.0 0.00 0.04 0.04 66 1013.4
20260506213549 66 68 3.0 12.0 0.00 0.04 0.04 64 1013.2
20260506213038 66 68 1.0 10.0 0.00 0.04 0.04 65 1013.1
20260506212525 65 87 0.0 10.0 0.00 0.04 0.04 66 1013.3
20260506212100 64 72 1.0 11.0 0.00 0.04 0.04 67 1013.5
20260506211526 64 35 5.0 11.0 0.00 0.04 0.04 66 1013.3
20260506211035 63 39 1.0 5.0 0.00 0.04 0.04 66 1013.5
20260506210541 63 49 0.0 5.0 0.00 0.04 0.04 66 1013.8
20260506210044 64 47 0.0 5.0 0.00 0.04 0.04 66 1013.6
20260506205552 64 49 0.0 6.0 0.00 0.04 0.04 65 1013.4
20260506205039 64 20 1.0 6.0 0.00 0.04 0.04 66 1013.4
20260506204525 64 29 2.0 11.0 0.00 0.04 0.04 65 1013.4
20260506204032 64 355 0.0 11.0 0.00 0.04 0.04 65 1013.7
20260506203524 64 82 0.0 4.0 0.00 0.04 0.04 65 1013.4
20260506203044 64 36 0.0 3.0 0.00 0.04 0.04 64 1013.7
20260506202529 64 52 0.0 5.0 0.00 0.04 0.04 64 1013.7
20260506202035 64 45 1.0 11.0 0.00 0.04 0.04 64 1013.7
20260506201525 64 50 1.0 11.0 0.00 0.04 0.04 65 1013.9
20260506201032 63 63 0.0 6.0 0.00 0.04 0.04 66 1014.1
20260506200537 63 62 1.0 12.0 0.00 0.04 0.04 65 1014.0
20260506200024 64 64 0.0 12.0 0.00 0.04 0.04 65 1014.1
20260506195525 64 66 0.0 10.0 0.00 0.04 0.04 65 1014.3
20260506195100 63 59 0.0 5.0 0.00 0.04 0.04 65 1014.4
20260506194523 63 55 0.0 5.0 0.00 0.04 0.04 66 1014.4
20260506194029 62 40 1.0 6.0 0.00 0.04 0.04 67 1014.7
20260506193534 62 40 0.0 9.0 0.00 0.04 0.04 66 1014.6
20260506193039 62 50 0.0 9.0 0.00 0.04 0.04 67 1014.5
20260506192546 62 21 1.0 9.0 0.00 0.04 0.04 68 1014.8
20260506192048 61 358 1.0 6.0 0.00 0.04 0.04 68 1014.8
20260506191602 61 20 2.0 8.0 0.00 0.04 0.04 67 1014.8
20260506191027 61 74 1.0 8.0 0.00 0.04 0.04 67 1014.9
20260506190537 61 17 0.0 6.0 0.00 0.04 0.04 68 1014.9
20260506190025 61 16 4.0 7.0 0.00 0.04 0.04 68 1014.8
20260506185531 61 337 2.0 9.0 0.00 0.04 0.04 68 1014.6
20260506185039 61 18 4.0 11.0 0.00 0.04 0.04 67 1014.8
20260506184541 61 2 4.0 11.0 0.00 0.04 0.04 68 1014.6
20260506184047 61 351 5.0 15.0 0.00 0.04 0.04 68 1014.0
20260506183532 60 312 5.0 15.0 0.00 0.04 0.04 68 1013.6
20260506183039 60 25 8.0 13.0 0.00 0.04 0.04 68 1013.9
20260506182526 60 333 4.0 14.0 0.00 0.04 0.04 70 1014.0
20260506182031 59 35 6.0 14.0 0.00 0.04 0.04 71 1013.7
20260506181530 59 21 9.0 14.0 0.00 0.04 0.04 70 1013.8
20260506181040 59 25 3.0 13.0 0.00 0.04 0.04 71 1014.0
20260506180525 58 30 5.0 13.0 0.00 0.04 0.04 71 1013.9
20260506180032 58 30 3.0 15.0 0.00 0.04 0.04 73 1014.3
20260506175523 58 67 5.0 15.0 0.00 0.04 0.04 72 1014.3
20260506175032 58 41 7.0 12.0 0.00 0.04 0.04 74 1014.3
20260506174523 57 358 4.0 12.0 0.00 0.04 0.04 75 1014.4
20260506174030 57 50 5.0 13.0 0.00 0.04 0.04 76 1014.1
20260506173601 56 53 5.0 13.0 0.00 0.04 0.04 77 1014.1
20260506173028 56 20 4.0 11.0 0.00 0.04 0.04 77 1014.3
20260506172540 55 14 5.0 14.0 0.00 0.04 0.04 78 1014.4
20260506172024 55 36 8.0 14.0 0.00 0.04 0.04 79 1014.2
20260506171530 55 14 6.0 14.0 0.00 0.04 0.04 79 1014.1
20260506171032 55 338 5.0 14.0 0.00 0.04 0.04 80 1014.2
20260506170523 55 49 7.0 13.0 0.00 0.04 0.04 80 1014.5
20260506170059 55 50 5.0 12.0 0.00 0.04 0.04 80 1014.5
20260506165550 55 33 5.0 11.0 0.00 0.04 0.04 81 1014.6
20260506165021 54 23 3.0 11.0 0.00 0.04 0.04 80 1014.6
20260506164528 54 58 5.0 11.0 0.00 0.04 0.04 80 1014.8
20260506164028 54 49 4.0 9.0 0.00 0.04 0.04 80 1014.9
20260506163520 54 12 5.0 14.0 0.00 0.04 0.04 81 1015.1
20260506163024 54 43 4.0 14.0 0.00 0.04 0.04 81 1014.9
20260506162530 54 44 6.0 11.0 0.00 0.04 0.04 82 1014.7
20260506162102 54 42 4.0 12.0 0.01 0.04 0.04 82 1014.5
20260506161527 54 43 6.0 12.0 0.02 0.04 0.04 82 1014.4
20260506161101 54 350 4.0 11.0 0.03 0.04 0.04 83 1013.9
20260506160526 53 349 5.0 14.0 0.03 0.04 0.04 82 1013.7
20260506160034 53 12 7.0 14.0 0.04 0.04 0.04 83 1013.9
20260506155522 54 324 5.0 10.0 0.04 0.04 0.04 83 1014.4
20260506155032 54 351 3.0 10.0 0.04 0.04 0.04 83 1014.6
20260506154543 54 349 3.0 6.0 0.04 0.04 0.04 84 1014.7
20260506154026 53 38 0.0 11.0 0.04 0.04 0.04 83 1014.8
20260506153531 53 12 4.0 12.0 0.04 0.04 0.04 83 1014.4
20260506153036 53 64 5.0 12.0 0.04 0.04 0.04 84 1014.3
20260506152537 53 3 4.0 13.0 0.04 0.04 0.04 83 1014.2
20260506152047 53 345 5.0 13.0 0.03 0.03 0.03 82 1014.2
20260506151551 53 360 3.0 5.0 0.02 0.02 0.02 82 1015.6
20260506151035 53 324 1.0 5.0 0.01 0.01 0.01 82 1016.4
20260506150526 53 324 1.0 5.0 0.01 0.01 0.01 81 1016.6
20260506150029 53 2 1.0 5.0 0.00 0.00 0.00 81 1016.2
20260506145533 53 328 2.0 7.0 0.00 0.00 0.00 81 1015.9
20260506145022 53 14 2.0 7.0 0.00 0.00 0.00 81 1016.0
20260506144527 53 360 3.0 6.0 0.00 0.00 0.00 81 1015.6
20260506144031 53 351 2.0 7.0 0.00 0.00 0.00 80 1015.0
20260506143538 53 339 3.0 12.0 0.00 0.00 0.00 80 1014.5
20260506143023 53 24 5.0 12.0 0.00 0.00 0.00 79 1014.0
20260506142532 53 27 3.0 10.0 0.00 0.00 0.00 79 1013.9
20260506142038 53 48 5.0 10.0 0.00 0.00 0.00 78 1013.8
20260506141541 53 351 3.0 9.0 0.00 0.00 0.00 78 1015.2
20260506141046 53 343 2.0 9.0 0.00 0.00 0.00 78 1015.3
20260506140532 54 312 2.0 7.0 0.00 0.00 0.00 78 1015.0
20260506140037 54 345 3.0 7.0 0.00 0.00 0.00 78 1014.7
20260506135528 54 19 1.0 13.0 0.00 0.00 0.00 78 1014.9
20260506135029 53 28 5.0 13.0 0.00 0.00 0.00 78 1014.6
20260506134541 53 16 6.0 12.0 0.00 0.00 0.00 79 1014.3
20260506134043 53 13 5.0 9.0 0.00 0.00 0.00 78 1014.0
20260506133551 53 18 3.0 12.0 0.00 0.00 0.00 79 1013.8
20260506133036 53 2 2.0 12.0 0.00 0.00 0.00 79 1013.7
20260506132609 53 345 2.0 11.0 0.00 0.00 0.00 79 1013.6
20260506132053 53 2 4.0 11.0 0.00 0.00 0.00 79 1013.9
20260506131540 53 342 3.0 13.0 0.00 0.00 0.00 79 1013.8
20260506131022 53 2 6.0 13.0 0.00 0.00 0.00 79 1013.6
20260506130543 53 54 4.0 11.0 0.00 0.00 0.00 79 1013.5
20260506130027 53 29 4.0 11.0 0.00 0.00 0.00 79 1013.4
20260506125545 53 51 4.0 13.0 0.00 0.00 0.00 79 1013.5
20260506125047 53 3 5.0 13.0 0.00 0.00 0.00 78 1013.0
20260506124533 53 343 3.0 12.0 0.00 0.00 0.00 78 1013.1
20260506124024 53 41 6.0 12.0 0.00 0.00 0.00 78 1013.3
20260506123533 53 345 6.0 12.0 0.00 0.00 0.00 78 1013.3
20260506123024 53 41 3.0 9.0 0.00 0.00 0.00 78 1013.3
20260506122533 53 17 2.0 8.0 0.00 0.00 0.00 77 1013.3
20260506122020 53 341 0.0 14.0 0.00 0.00 0.00 77 1013.2
20260506121528 53 349 5.0 14.0 0.00 0.00 0.00 76 1013.0
20260506121037 53 349 4.0 14.0 0.00 0.00 0.00 76 1012.9
20260506120522 54 357 6.0 14.0 0.00 0.00 0.00 75 1013.2
20260506120025 54 360 7.0 13.0 0.00 0.00 0.00 75 1012.9
20260506115549 54 350 3.0 12.0 0.00 0.00 0.00 74 1012.9
20260506115100 54 20 3.0 12.0 0.00 0.00 0.00 74 1012.9
20260506114526 54 341 3.0 16.0 0.00 0.00 0.00 73 1012.9
20260506114029 54 35 5.0 16.0 0.00 0.00 0.00 73 1012.7
20260506113533 54 358 3.0 14.0 0.00 0.00 0.00 73 1012.5
20260506113107 55 27 5.0 14.0 0.00 0.00 0.00 72 1012.4
20260506112533 55 9 4.0 12.0 0.00 0.00 0.00 72 1012.4
20260506112042 55 335 2.0 14.0 0.00 0.00 0.00 71 1012.3
20260506111542 55 316 7.0 14.0 0.00 0.00 0.00 71 1012.2
20260506111024 55 36 5.0 12.0 0.00 0.00 0.00 71 1011.9
20260506110528 55 31 2.0 13.0 0.00 0.00 0.00 71 1012.0
20260506110039 55 341 4.0 13.0 0.00 0.00 0.00 71 1011.9
20260506105525 56 349 2.0 9.0 0.00 0.00 0.00 71 1011.9
20260506105052 56 339 2.0 11.0 0.00 0.00 0.00 71 1011.8
20260506104520 56 22 3.0 11.0 0.00 0.00 0.00 71 1011.7
20260506104058 56 336 2.0 10.0 0.00 0.00 0.00 71 1011.6
20260506103523 56 347 3.0 10.0 0.00 0.00 0.00 71 1011.7
20260506103025 56 318 3.0 10.0 0.00 0.00 0.00 70 1011.5
20260506102531 56 345 3.0 13.0 0.00 0.00 0.00 71 1011.4
20260506102034 56 358 3.0 13.0 0.00 0.00 0.00 71 1011.4
20260506101522 57 322 3.0 10.0 0.00 0.00 0.00 71 1011.2
20260506101057 57 11 2.0 10.0 0.00 0.00 0.00 71 1011.0
20260506100542 57 7 3.0 10.0 0.00 0.00 0.00 71 1010.9